Regional Weather Roundup
Issued by NWS Lake Charles, LA

Home | Current Version | Previous Version | Text Only | Print | Product List | Glossary On
Versions: 1 2 3 4 5 6 7 8 9 10 11 12 13 14 15 16 17 18 19 20 21 22 23 24 25 26 27
000
ASUS44 KLCH 230410
RWRLCH
REGIONAL WEATHER ROUNDUP
NATIONAL WEATHER SERVICE LAKE CHARLES LA
1100 PM CDT FRI SEP 22 2017

Note: "fair" indicates few or no clouds below 12,000 feet with no
significant weather and/or obstructions to visibility.


ACROSS SOUTHEAST TEXAS

CITY           SKY/WX    TMP DP  RH WIND       PRES   REMARKS
BEAUMONT       NOT AVBL
BEAUMONT CITY  FAIR      74  71  92 CALM      29.94R
ORANGE         CLEAR     73  73 100 CALM      29.95R FOG
JASPER         CLEAR     75  74  96 CALM      29.96S FOG
$$

ACROSS CENTRAL LOUISIANA

CITY           SKY/WX    TMP DP  RH WIND       PRES   REMARKS
LEESVILLE      NOT AVBL
FULLERTON      FAIR      73  72  96 CALM      29.92S
ALEXANDRIA INT NOT AVBL
ESLER FIELD    NOT AVBL
DERIDDER       FAIR      77  75  95 CALM      29.96R
OAKDALE        CLEAR     73  71  94 CALM      29.94R FOG
OPELOUSAS      FAIR      74  72  91 CALM      29.94S
$$

ACROSS SOUTHWEST AND SOUTH CENTRAL LOUISIANA

CITY           SKY/WX    TMP DP  RH WIND       PRES   REMARKS
SULPHUR        CLEAR     76  71  85 CALM      29.94S
LAKE CHARLES   NOT AVBL
CHENNAULT INT  LGT RAIN  76  74  93 SE3       29.94S
CAMERON PHI      N/A     79  75  89 CALM      29.93S
DEQUINCY       FAIR      73  72  95 CALM      29.94S
JENNINGS       FAIR      77  74  92 CALM      29.94S
LAFAYETTE      NOT AVBL
NEW IBERIA     NOT AVBL
ABBEVILLE      MOCLDY    72  72 100 CALM      29.94S
PATTERSON      NOT AVBL
SALT POINT       N/A     76  75  97 CALM      29.93R
$$

SELECTED SITES ACROSS THE REGION

CITY           SKY/WX    TMP DP  RH WIND       PRES   REMARKS
HOUSTON BUSH   CLEAR     75  72  90 SE3       29.92S
HOUSTON HOBBY  PTCLDY    79  73  82 CALM      29.91S
GALVESTON      NOT AVBL
COLLEGE STAT   NOT AVBL
CONROE         NOT AVBL
HUNTSVILLE     NOT AVBL
LUFKIN         NOT AVBL
SHREVEPORT     NOT AVBL
MONROE         PTCLDY    75  73  93 CALM      29.96S
NATCHEZ MS     CLEAR     77  71  82 CALM      29.97S
BATON ROUGE    CLEAR     77  72  84 W3        29.94
N.O. INTL ARPT CLOUDY    81  75  82 SE3       29.94F
SLIDELL        NOT AVBL
$$

MARINE REPORTS

STATION/POSITION TIME  SKY/WX   TEMP    WIND        PRES    VSBY
                                AIR SEA DIR/SP/G
                 (UTC)          (F)     (DEG/KT/KT) (MB)    (MI)
BUOY 30 S HIGH I 0250            82 84  110/  8/  8 1013.1
WVE H/P(F/S)=  2/ 5

SEA RIM ST PARK  0300            81        CALM     1013.8S
PORT ARTHUR      0348            79 83  170/  1/  1 1013.6R
SABINE PASS N    0348            81 85  170/  2/  3 1014.9R
TEXAS POINT      NOT AVBL
CALCASIEU PASS   0348            82 86  150/  2/  3 1012.6R
LK CHARLES BEACH 0348            79 81              1013.2R
MARSH ISLAND     0300            83                   N/A
FRESH WATER LOCK 0348            78 87   50/  3/  4 1013.5F
AMERADA PASS     0348            76 85     CALM     1013.8R
$$




USA.gov is the U.S. government's official web portal to all federal, state and local government web resources and services.